Terug naar catalogus

Delfi-N3xt

DELFI-N3XT

ActiefAmateurradioSSO
NORAD 39428·PAYLOAD·🇳🇱 Netherlands

Gelanceerd Nov 21, 2013 vanaf Dombarovsky

Loading…

Volgende Passages (komende 24 uur)

TLE

VersSource: AMSAT

Epoch: Sep 14, 2026, 05:30 UTC

1 39428U 13066N   26257.22923041  .00004179  00000-0  35872-3 0  9996
2 39428  97.8290 177.4962 0071376 270.5488  88.7554 14.96078789687936

Volg Delfi-N3xt in realtime met AllMySat

Download on the App Store